CW4114 Weather Reports


time (UTC)temp
C
wind
direction
speed
KPH
gust
KPH
rain 1hr
cm
rain 24hr
cm
rain mn
cm
humidity
%
barometer
mb
20240222102858 -1 302 3.2 6.4 0.00 0.00 0.00 95 1008.1
20240222102131 -1 288 3.2 4.8 0.00 0.00 0.00 95 1008.1
20240222101630 -1 282 3.2 4.8 0.00 0.00 0.00 95 1008.2
20240222101131 -1 288 3.2 4.8 0.00 0.00 0.00 94 1008.2
20240222100854 -1 295 1.6 4.8 0.00 0.00 0.00 94 1008.2
20240222100131 -1 296 1.6 4.8 0.00 0.00 0.00 94 1008.1
20240222095631 -1 303 3.2 6.4 0.00 0.00 0.00 95 1008.2
20240222095131 -1 307 3.2 6.4 0.00 0.00 0.00 95 1008.3
20240222094630 -1 310 3.2 6.4 0.00 0.00 0.00 94 1008.3
20240222094355 -1 284 3.2 6.4 0.00 0.00 0.00 94 1008.2
20240222093631 -1 293 3.2 6.4 0.00 0.00 0.00 94 1008.3
20240222093131 -1 289 3.2 6.4 0.00 0.00 0.00 94 1008.2
20240222092630 -1 284 3.2 4.8 0.00 0.00 0.00 94 1008.2
20240222092132 -1 300 1.6 6.4 0.00 0.00 0.00 94 1008.2
20240222091632 -1 303 3.2 6.4 0.00 0.00 0.00 94 1008.3
20240222090905 -1 302 3.2 6.4 0.00 0.00 0.00 94 1008.5
20240222090131 -1 286 1.6 6.4 0.00 0.00 0.00 94 1008.6
20240222085854 -1 310 1.6 4.8 0.00 0.00 0.00 94 1008.7
20240222085358 -1 304 1.6 4.8 0.00 0.00 0.00 94 1008.8
20240222084630 -1 322 1.6 4.8 0.00 0.00 0.00 94 1008.8
20240222084131 -1 277 1.6 3.2 0.00 0.00 0.00 94 1008.6
20240222083631 -1 293 1.6 4.8 0.00 0.00 0.00 94 1008.9
20240222083126 -1 298 3.2 6.4 0.00 0.00 0.00 94 1008.9
20240222082627 -1 292 1.6 6.4 0.00 0.00 0.00 94 1008.9
20240222082121 -1 307 3.2 4.8 0.00 0.00 0.00 94 1008.9
20240222081610 -1 300 3.2 4.8 0.00 0.00 0.00 94 1008.9
20240222081103 0 317 3.2 4.8 0.00 0.00 0.00 94 1008.8
20240222080605 0 302 3.2 4.8 0.00 0.00 0.00 94 1008.8
20240222080102 0 305 3.2 4.8 0.00 0.00 0.00 94 1008.8
20240222075547 0 291 4.8 8.0 0.00 0.00 0.00 94 1008.8
20240222075306 0 281 4.8 8.0 0.00 0.00 0.00 94 1008.8
20240222074543 0 287 4.8 8.0 0.00 0.00 0.00 94 1008.9
20240222074302 0 288 4.8 8.0 0.00 0.00 0.00 94 1008.9
20240222073536 0 299 3.2 6.4 0.00 0.00 0.00 94 1008.9
20240222073036 0 296 3.2 6.4 0.00 0.00 0.00 94 1008.9
20240222072537 0 296 4.8 6.4 0.00 0.00 0.00 94 1009.0
20240222072035 0 284 4.8 6.4 0.00 0.00 0.00 94 1009.0
20240222071536 0 290 3.2 6.4 0.00 0.00 0.00 94 1009.0
20240222071033 0 300 3.2 4.8 0.00 0.00 0.00 94 1009.0
20240222070532 0 293 3.2 6.4 0.00 0.00 0.00 94 1009.1
20240222070031 0 304 3.2 6.4 0.00 0.00 0.00 94 1009.1
20240222065532 0 310 1.6 4.8 0.00 0.00 0.00 94 1009.2
20240222065030 0 309 1.6 6.4 0.00 0.00 0.00 94 1009.1
20240222064532 0 295 3.2 6.4 0.00 0.00 0.00 94 1009.1
20240222064033 0 296 3.2 8.0 0.00 0.00 0.00 95 1009.0
20240222063531 0 298 3.2 8.0 0.00 0.00 0.00 95 1009.0
20240222063030 0 291 3.2 8.0 0.00 0.00 0.00 95 1009.0
20240222062531 0 298 4.8 8.0 0.00 0.00 0.00 95 1009.0
20240222062032 0 300 4.8 8.0 0.00 0.00 0.00 95 1009.0
20240222061758 0 324 4.8 8.0 0.00 0.00 0.00 95 1009.1
20240222061032 0 302 4.8 9.7 0.00 0.00 0.00 95 1009.1
20240222060531 0 300 4.8 9.7 0.00 0.00 0.00 95 1009.0
20240222060031 0 314 4.8 9.7 0.00 0.00 0.00 95 1009.0
20240222055531 0 300 4.8 9.7 0.00 0.00 0.00 95 1009.0
20240222055030 0 299 4.8 9.7 0.00 0.00 0.00 95 1009.0
20240222054531 0 300 4.8 9.7 0.00 0.00 0.00 95 1008.9
20240222054032 0 294 4.8 8.0 0.00 0.00 0.00 95 1008.9
20240222053531 -1 303 4.8 8.0 0.00 0.00 0.00 95 1008.9
20240222053251 -1 296 3.2 6.4 0.00 0.00 0.00 95 1008.9
20240222052008 -1 281 3.2 6.4 0.00 0.00 0.00 94 1008.9
20240222051504 -1 302 3.2 6.4 0.00 0.00 0.00 94 1008.9
20240222051002 -1 298 3.2 6.4 0.00 0.00 0.00 94 1008.9
20240222050502 -1 300 3.2 6.4 0.00 0.00 0.00 94 1008.9
20240222050002 -1 297 3.2 6.4 0.00 0.00 0.00 94 1008.9
20240222045503 -1 305 1.6 4.8 0.00 0.00 0.00 94 1009.0
20240222044956 -1 281 0.0 3.2 0.00 0.00 0.00 94 1009.1
20240222044454 -1 303 0.0 0.0 0.00 0.00 0.00 94 1009.0
20240222043942 -1 336 0.0 3.2 0.00 0.00 0.00 94 1009.1
20240222043439 -1 336 1.6 3.2 0.00 0.00 0.00 94 1009.0
20240222042939 -1 310 0.0 3.2 0.00 0.00 0.00 94 1009.0
20240222042434 -1 354 1.6 3.2 0.00 0.00 0.00 94 1009.0
20240222042156 0 302 1.6 3.2 0.00 0.00 0.00 94 1009.0
20240222041431 0 294 0.0 1.6 0.00 0.00 0.00 94 1009.0
20240222040930 0 341 0.0 1.6 0.00 0.00 0.00 94 1009.1
20240222040432 0 341 1.6 6.4 0.00 0.00 0.00 94 1009.2
20240222040159 0 307 3.2 6.4 0.00 0.00 0.00 94 1009.1
20240222035431 0 299 3.2 6.4 0.00 0.00 0.00 94 1009.0
20240222034932 0 299 4.8 6.4 0.00 0.00 0.00 94 1009.1
20240222034431 0 303 4.8 6.4 0.00 0.00 0.00 94 1009.2
20240222033933 0 308 4.8 6.4 0.00 0.00 0.00 94 1009.2
20240222033431 0 292 3.2 8.0 0.00 0.00 0.00 94 1009.1
20240222032932 0 277 3.2 6.4 0.00 0.00 0.00 94 1009.0
20240222032433 0 279 4.8 8.0 0.00 0.00 0.00 94 1009.0
20240222031930 -1 296 6.4 8.0 0.00 0.00 0.00 94 1009.2
20240222031431 -1 302 4.8 8.0 0.00 0.00 0.00 94 1009.2
20240222030925 -1 300 3.2 6.4 0.00 0.00 0.00 94 1009.2
20240222030643 -1 295 3.2 6.4 0.00 0.00 0.00 93 1009.2
20240222025922 -1 284 3.2 6.4 0.00 0.00 0.00 93 1009.2
20240222025423 -1 289 3.2 4.8 0.00 0.00 0.00 93 1009.4
20240222024916 -1 276 3.2 4.8 0.00 0.00 0.00 93 1009.4
20240222024630 -1 284 3.2 4.8 0.00 0.00 0.00 93 1009.4
20240222023906 -1 274 3.2 4.8 0.00 0.00 0.00 93 1009.2
20240222022903 -1 276 1.6 4.8 0.00 0.00 0.00 93 1009.2
20240222022402 -1 268 1.6 4.8 0.00 0.00 0.00 93 1009.4
20240222021904 -1 269 1.6 4.8 0.00 0.00 0.00 92 1009.5
20240222021402 -1 271 1.6 4.8 0.00 0.00 0.00 92 1009.6
20240222021124 0 258 1.6 3.2 0.00 0.00 0.00 92 1009.5
20240222020402 0 260 1.6 3.2 0.00 0.00 0.00 92 1009.5
20240222015904 0 250 1.6 3.2 0.00 0.00 0.00 92 1009.4
20240222015624 0 282 1.6 3.2 0.00 0.00 0.00 92 1009.5
20240222014904 0 276 0.0 3.2 0.00 0.00 0.00 92 1009.5
20240222014402 0 274 0.0 3.2 0.00 0.00 0.00 92 1009.5
20240222013904 0 275 0.0 1.6 0.00 0.00 0.00 91 1009.6
20240222013404 0 287 0.0 3.2 0.00 0.00 0.00 91 1009.6
20240222012902 0 293 1.6 3.2 0.00 0.00 0.00 91 1009.5
20240222012403 0 293 1.6 3.2 0.00 0.00 0.00 91 1009.5
20240222012130 0 299 1.6 3.2 0.00 0.00 0.00 91 1009.6
20240222010902 0 274 1.6 3.2 0.00 0.00 0.00 90 1009.7
20240222010402 0 267 0.0 3.2 0.00 0.00 0.00 90 1009.7
20240222005902 0 241 1.6 4.8 0.00 0.00 0.00 90 1009.8
20240222005401 0 240 1.6 4.8 0.00 0.00 0.00 90 1009.8
20240222004902 0 265 1.6 3.2 0.00 0.00 0.00 89 1009.9
20240222004128 1 269 1.6 3.2 0.00 0.00 0.00 89 1010.0
20240222003402 1 269 1.6 3.2 0.00 0.00 0.00 89 1009.9
20240222002902 1 274 1.6 3.2 0.00 0.00 0.00 89 1009.9
20240222002403 1 285 0.0 3.2 0.00 0.00 0.00 88 1009.9
20240222001903 1 266 0.0 1.6 0.00 0.00 0.00 88 1010.0
20240222001404 2 250 0.0 4.8 0.00 0.00 0.00 88 1010.1
20240222000902 2 251 1.6 4.8 0.00 0.00 0.00 88 1010.0
20240222000403 2 250 1.6 4.8 0.00 0.00 0.00 87 1010.1
20240221235903 2 271 1.6 4.8 0.00 0.00 0.00 87 1010.1
20240221235402 2 272 1.6 3.2 0.00 0.00 0.00 87 1010.0
20240221234903 2 243 0.0 3.2 0.00 0.00 0.00 87 1009.9
20240221234624 3 236 1.6 3.2 0.00 0.00 0.00 87 1009.8
20240221233904 3 241 1.6 3.2 0.00 0.00 0.00 87 1009.9
20240221233402 3 239 1.6 3.2 0.00 0.00 0.00 87 1009.8
20240221232903 3 238 1.6 4.8 0.00 0.00 0.00 87 1009.7
20240221232402 3 239 1.6 4.8 0.00 0.00 0.00 86 1009.9
20240221231906 3 213 1.6 4.8 0.00 0.00 0.00 86 1009.7
20240221231626 3 216 0.0 3.2 0.00 0.00 0.00 86 1009.7
20240221230904 3 217 0.0 1.6 0.00 0.00 0.00 86 1009.7
20240221230403 3 217 0.0 1.6 0.00 0.00 0.00 86 1009.7
20240221225905 3 218 0.0 3.2 0.00 0.00 0.00 86 1009.7
20240221225403 3 219 1.6 4.8 0.00 0.00 0.00 87 1009.7
20240221224902 3 206 0.0 4.8 0.00 0.00 0.00 87 1009.8
20240221224402 3 143 0.0 1.6 0.00 0.00 0.00 87 1009.8
20240221223903 3 101 0.0 3.2 0.00 0.00 0.00 87 1009.7
20240221223402 3 101 0.0 3.2 0.00 0.00 0.00 87 1009.8
20240221222902 3 94 0.0 3.2 0.00 0.00 0.00 88 1009.7
20240221222627 3 94 0.0 3.2 0.00 0.00 0.00 88 1009.7
20240221221858 3 105 0.0 3.2 0.00 0.00 0.00 88 1009.8
20240221221614 3 87 0.0 3.2 0.00 0.00 0.00 88 1009.7
20240221220845 3 77 0.0 4.8 0.00 0.00 0.00 88 1009.6
20240221220342 3 78 1.6 4.8 0.00 0.00 0.00 88 1009.5
20240221215833 3 72 3.2 8.0 0.00 0.00 0.00 89 1009.5
20240221215333 3 104 3.2 8.0 0.00 0.00 0.00 89 1009.2
20240221214834 3 89 4.8 8.0 0.00 0.00 0.00 89 1009.2
20240221214555 3 105 4.8 8.0 0.00 0.00 0.00 88 1009.2
20240221214047 3 112 3.2 8.0 0.00 0.00 0.00 88 1009.2
20240221213321 3 117 3.2 6.4 0.00 0.00 0.00 87 1009.4
20240221212820 3 107 3.2 6.4 0.00 0.00 0.00 87 1009.4
20240221212321 3 111 3.2 6.4 0.00 0.00 0.00 86 1009.5
20240221212044 3 78 1.6 6.4 0.00 0.00 0.00 85 1009.7
20240221211320 3 87 1.6 4.8 0.00 0.00 0.00 84 1009.7
20240221210814 3 31 3.2 6.4 0.00 0.00 0.00 84 1009.8
20240221210310 3 57 3.2 6.4 0.00 0.00 0.00 83 1009.9
20240221210028 3 52 3.2 6.4 0.00 0.00 0.00 83 1010.0
20240221205301 3 63 1.6 6.4 0.00 0.00 0.00 82 1010.1
20240221204800 3 42 1.6 9.7 0.00 0.00 0.00 82 1010.1
20240221204259 3 44 3.2 9.7 0.00 0.00 0.00 81 1010.2
20240221203758 4 39 3.2 9.7 0.00 0.00 0.00 81 1010.1
20240221203257 4 37 3.2 9.7 0.00 0.00 0.00 80 1010.2
20240221203006 4 345 3.2 9.7 0.00 0.00 0.00 79 1010.2
20240221202242 4 30 3.2 9.7 0.00 0.00 0.00 79 1010.1
20240221201735 4 5 3.2 6.4 0.00 0.00 0.00 78 1010.0
20240221201234 5 342 3.2 9.7 0.00 0.00 0.00 77 1009.8
20240221200959 5 28 4.8 11.3 0.00 0.00 0.00 75 1009.9
20240221200232 5 330 4.8 11.3 0.00 0.00 0.00 74 1009.9
20240221195953 5 8 4.8 12.9 0.00 0.00 0.00 73 1009.9
20240221195230 5 4 4.8 12.9 0.00 0.00 0.00 71 1009.7
20240221194731 6 35 4.8 12.9 0.00 0.00 0.00 69 1009.7
20240221194231 6 10 4.8 12.9 0.00 0.00 0.00 64 1009.7
20240221193731 8 13 4.8 11.3 0.00 0.00 0.00 57 1009.7
20240221193232 10 4 6.4 14.5 0.00 0.00 0.00 51 1009.5
20240221192732 11 286 8.0 14.5 0.00 0.00 0.00 51 1009.2
20240221192453 11 304 8.0 20.9 0.00 0.00 0.00 51 1009.2
20240221191731 11 318 9.7 20.9 0.00 0.00 0.00 51 1009.4
20240221191230 11 292 12.9 22.5 0.00 0.00 0.00 50 1009.4
20240221190731 11 283 11.3 22.5 0.00 0.00 0.00 50 1009.5
20240221190231 11 299 11.3 22.5 0.00 0.00 0.00 49 1009.4
20240221185733 11 289 11.3 20.9 0.00 0.00 0.00 49 1009.4
20240221185226 12 274 11.3 20.9 0.00 0.00 0.00 48 1009.4
20240221184725 12 282 9.7 24.1 0.00 0.00 0.00 47 1009.5
20240221184217 12 281 9.7 24.1 0.00 0.00 0.00 47 1009.6
20240221183949 12 247 12.9 24.1 0.00 0.00 0.00 47 1009.6
20240221182712 12 270 9.7 22.5 0.00 0.00 0.00 47 1009.7
20240221182211 12 338 9.7 20.9 0.00 0.00 0.00 47 1009.7
20240221181712 12 258 8.0 20.9 0.00 0.00 0.00 47 1010.0
20240221181204 12 301 8.0 14.5 0.00 0.00 0.00 47 1010.1
20240221180707 12 260 11.3 19.3 0.00 0.00 0.00 48 1010.2
20240221180203 12 264 11.3 20.9 0.00 0.00 0.00 49 1010.4
20240221175204 11 296 11.3 20.9 0.00 0.00 0.00 49 1010.5
20240221174923 11 308 9.7 20.9 0.00 0.00 0.00 49 1010.6
20240221174159 11 321 9.7 19.3 0.00 0.00 0.00 50 1010.6
20240221173655 11 303 11.3 19.3 0.00 0.00 0.00 50 1010.6
20240221173419 11 277 11.3 20.9 0.00 0.00 0.00 50 1010.6
20240221172653 11 279 12.9 22.5 0.00 0.00 0.00 51 1010.8
20240221172152 11 238 11.3 22.5 0.00 0.00 0.00 51 1010.9
20240221171140 10 314 9.7 20.9 0.00 0.00 0.00 52 1011.1
20240221170634 10 312 9.7 20.9 0.00 0.00 0.00 52 1011.1
20240221170132 10 265 6.4 16.1 0.00 0.00 0.00 54 1011.2
20240221165634 10 288 6.4 17.7 0.00 0.00 0.00 56 1011.3
20240221165131 9 258 8.0 17.7 0.00 0.00 0.00 56 1011.3
20240221164633 9 293 8.0 17.7 0.00 0.00 0.00 56 1011.4
20240221164131 10 255 8.0 17.7 0.00 0.00 0.00 55 1011.4
20240221163634 9 224 8.0 17.7 0.00 0.00 0.00 57 1011.3
20240221163356 9 252 6.4 17.7 0.00 0.00 0.00 57 1011.4
20240221162631 9 252 6.4 14.5 0.00 0.00 0.00 59 1011.5
20240221162131 8 230 6.4 14.5 0.00 0.00 0.00 61 1011.5
20240221161624 8 259 8.0 14.5 0.00 0.00 0.00 62 1011.7
20240221161114 8 252 8.0 17.7 0.00 0.00 0.00 63 1011.7
20240221160607 8 200 9.7 17.7 0.00 0.00 0.00 62 1011.8
20240221160105 8 239 8.0 16.1 0.00 0.00 0.00 63 1011.9
20240221155833 7 231 8.0 16.1 0.00 0.00 0.00 65 1012.0
20240221155106 7 233 8.0 16.1 0.00 0.00 0.00 66 1012.0
20240221154602 6 259 6.4 12.9 0.00 0.00 0.00 68 1012.1
20240221154103 6 252 8.0 12.9 0.00 0.00 0.00 69 1012.1
20240221153602 6 294 8.0 12.9 0.00 0.00 0.00 69 1012.3
20240221153103 5 281 8.0 17.7 0.00 0.00 0.00 70 1012.2
20240221152602 5 227 8.0 17.7 0.00 0.00 0.00 71 1012.3
20240221152102 5 254 8.0 17.7 0.00 0.00 0.00 71 1012.3
20240221151602 5 246 8.0 17.7 0.00 0.00 0.00 72 1012.2
20240221151103 5 251 9.7 17.7 0.00 0.00 0.00 73 1012.3
20240221150604 5 295 9.7 17.7 0.00 0.00 0.00 73 1012.4
20240221150325 5 272 9.7 17.7 0.00 0.00 0.00 74 1012.4
20240221145604 4 240 9.7 17.7 0.00 0.00 0.00 74 1012.5
20240221145100 4 307 8.0 17.7 0.00 0.00 0.00 74 1012.6
20240221144602 4 255 9.7 17.7 0.00 0.00 0.00 75 1012.6
20240221144101 4 291 9.7 19.3 0.00 0.00 0.00 75 1012.7
20240221143558 4 293 9.7 19.3 0.00 0.00 0.00 75 1012.8
20240221143307 4 241 9.7 17.7 0.00 0.00 0.00 75 1012.7
20240221142809 4 239 9.7 17.7 0.00 0.00 0.00 75 1012.8
20240221142038 4 269 8.0 19.3 0.00 0.00 0.00 75 1012.8
20240221141759 3 302 8.0 19.3 0.00 0.00 0.00 76 1012.8
20240221141031 3 265 6.4 14.5 0.00 0.00 0.00 77 1012.8
20240221140531 3 268 8.0 14.5 0.00 0.00 0.00 77 1012.9
20240221140031 3 272 8.0 17.7 0.00 0.00 0.00 77 1012.9
20240221135516 3 252 8.0 17.7 0.00 0.00 0.00 77 1012.9
20240221135015 3 236 9.7 17.7 0.00 0.00 0.00 77 1013.0
20240221134514 3 264 9.7 17.7 0.00 0.00 0.00 78 1013.0
20240221134014 3 255 9.7 17.7 0.00 0.00 0.00 78 1013.0
20240221133504 3 246 11.3 16.1 0.00 0.00 0.00 78 1012.9
20240221133002 2 255 11.3 19.3 0.00 0.00 0.00 78 1013.0
20240221132502 2 240 11.3 19.3 0.00 0.00 0.00 78 1013.0
20240221132230 2 241 11.3 19.3 0.00 0.00 0.00 79 1013.1
20240221131724 2 249 11.3 22.5 0.00 0.00 0.00 79 1013.1
20240221131002 2 277 11.3 22.5 0.00 0.00 0.00 79 1013.0
20240221130502 2 220 11.3 24.1 0.00 0.00 0.00 79 1013.1
20240221130003 2 253 12.9 24.1 0.00 0.00 0.00 79 1013.0
20240221125726 2 235 11.3 20.9 0.00 0.00 0.00 79 1013.0
20240221125002 2 258 9.7 19.3 0.00 0.00 0.00 79 1013.1
20240221124502 2 278 11.3 19.3 0.00 0.00 0.00 79 1013.1
20240221124002 2 237 11.3 17.7 0.00 0.00 0.00 79 1013.1
20240221123502 2 262 11.3 19.3 0.00 0.00 0.00 79 1013.1
20240221123003 2 277 11.3 19.3 0.00 0.00 0.00 79 1013.1
20240221122503 2 258 11.3 17.7 0.00 0.00 0.00 79 1013.1
20240221122226 2 235 11.3 17.7 0.00 0.00 0.00 79 1013.2
20240221121502 2 264 11.3 24.1 0.00 0.00 0.00 78 1013.2
20240221121002 2 246 11.3 24.1 0.00 0.00 0.00 78 1013.1
20240221120503 2 239 12.9 24.1 0.00 0.00 0.00 78 1013.3
20240221120224 2 238 12.9 24.1 0.00 0.00 0.00 78 1013.3
20240221115502 2 236 12.9 24.1 0.00 0.00 0.00 78 1013.3
20240221115003 2 281 11.3 24.1 0.00 0.00 0.00 78 1013.4
20240221114500 2 222 11.3 22.5 0.00 0.00 0.00 78 1013.3
20240221114219 2 246 11.3 22.5 0.00 0.00 0.00 78 1013.4
20240221113457 2 254 11.3 22.5 0.00 0.00 0.00 78 1013.4
20240221113212 2 241 11.3 22.5 0.00 0.00 0.00 77 1013.4
20240221112448 2 268 11.3 20.9 0.00 0.00 0.00 77 1013.5
20240221111944 2 233 12.9 20.9 0.00 0.00 0.00 77 1013.5
20240221111443 2 222 12.9 20.9 0.00 0.00 0.00 77 1013.5
20240221110936 2 261 11.3 24.1 0.00 0.00 0.00 77 1013.5
20240221110434 2 265 11.3 25.7 0.00 0.00 0.00 77 1013.5
20240221105932 2 273 11.3 25.7 0.00 0.00 0.00 77 1013.6
20240221105658 2 266 9.7 20.9 0.00 0.00 0.00 77 1013.6
20240221104931 2 255 11.3 19.3 0.00 0.00 0.00 77 1013.6
20240221104651 2 222 11.3 25.7 0.00 0.00 0.00 77 1013.6
20240221103933 2 237 11.3 25.7 0.00 0.00 0.00 76 1013.7
20240221103432 2 239 11.3 20.9 0.00 0.00 0.00 76 1013.8